Year,Month,Day,Hour,Minute,Value (Times are PST for temperature in C)
2015,08,05,00,00,16.40
2015,08,05,00,01,16.40
2015,08,05,00,02,16.40
2015,08,05,00,03,16.40
2015,08,05,00,04,16.40
2015,08,05,00,05,16.40
2015,08,05,00,06,16.40
2015,08,05,00,07,16.50
2015,08,05,00,08,16.50
2015,08,05,00,09,16.50
2015,08,05,00,10,16.50
2015,08,05,00,11,16.50
2015,08,05,00,12,16.40
2015,08,05,00,13,16.40
2015,08,05,00,14,16.40
2015,08,05,00,15,16.40
2015,08,05,00,16,16.30
2015,08,05,00,17,16.30
2015,08,05,00,18,16.20
2015,08,05,00,19,16.20
2015,08,05,00,20,16.10
2015,08,05,00,21,16.10
2015,08,05,00,22,16.00
2015,08,05,00,23,15.90
2015,08,05,00,24,15.90
2015,08,05,00,25,15.90
2015,08,05,00,26,15.90
2015,08,05,00,27,15.90
2015,08,05,00,28,15.90
2015,08,05,00,29,15.90
2015,08,05,00,30,15.80
2015,08,05,00,31,15.80
2015,08,05,00,32,15.80
2015,08,05,00,33,15.80
2015,08,05,00,34,15.80
2015,08,05,00,35,15.80
2015,08,05,00,36,15.80
2015,08,05,00,37,15.80
2015,08,05,00,38,15.80
2015,08,05,00,39,15.80
2015,08,05,00,40,15.80
2015,08,05,00,41,15.70
2015,08,05,00,42,15.70
2015,08,05,00,43,15.70
2015,08,05,00,44,15.70
2015,08,05,00,45,15.70
2015,08,05,00,46,15.70
2015,08,05,00,47,15.70
2015,08,05,00,48,15.60
2015,08,05,00,49,15.60
2015,08,05,00,50,15.60
2015,08,05,00,51,15.60
2015,08,05,00,52,15.60
2015,08,05,00,53,15.60
2015,08,05,00,54,15.60
2015,08,05,00,55,15.70
2015,08,05,00,56,15.70
2015,08,05,00,57,15.70
2015,08,05,00,58,15.70
2015,08,05,00,59,15.70
2015,08,05,01,00,15.70
2015,08,05,01,01,15.70
2015,08,05,01,02,15.70
2015,08,05,01,03,15.70
2015,08,05,01,04,15.70
2015,08,05,01,05,15.70
2015,08,05,01,06,15.70
2015,08,05,01,07,15.70
2015,08,05,01,08,15.80
2015,08,05,01,09,15.80
2015,08,05,01,10,15.80
2015,08,05,01,11,15.90
2015,08,05,01,12,15.90
2015,08,05,01,13,15.90
2015,08,05,01,14,15.90
2015,08,05,01,15,15.90
2015,08,05,01,16,16.00
2015,08,05,01,17,16.10
2015,08,05,01,18,16.10
2015,08,05,01,19,16.10
2015,08,05,01,20,16.10
2015,08,05,01,21,16.00
2015,08,05,01,22,15.90
2015,08,05,01,23,15.90
2015,08,05,01,24,15.90
2015,08,05,01,25,15.90
2015,08,05,01,26,15.90
2015,08,05,01,27,15.90
2015,08,05,01,28,15.90
2015,08,05,01,29,15.90
2015,08,05,01,30,15.90
2015,08,05,01,31,15.90
2015,08,05,01,32,15.90
2015,08,05,01,33,15.80
2015,08,05,01,34,15.80
2015,08,05,01,35,15.70
2015,08,05,01,36,15.70
2015,08,05,01,37,15.70
2015,08,05,01,38,15.60
2015,08,05,01,39,15.60
2015,08,05,01,40,15.50
2015,08,05,01,41,15.50
2015,08,05,01,42,15.40
2015,08,05,01,43,15.40
2015,08,05,01,44,15.40
2015,08,05,01,45,15.30
2015,08,05,01,46,15.30
2015,08,05,01,47,15.30
2015,08,05,01,48,15.30
2015,08,05,01,49,15.30
2015,08,05,01,50,15.30
2015,08,05,01,51,15.30
2015,08,05,01,52,15.20
2015,08,05,01,53,15.20
2015,08,05,01,54,15.20
2015,08,05,01,55,15.20
2015,08,05,01,56,15.20
2015,08,05,01,57,15.20
2015,08,05,01,58,15.20
2015,08,05,01,59,15.20
2015,08,05,02,00,15.10
2015,08,05,02,01,15.10
2015,08,05,02,02,15.10
2015,08,05,02,03,15.10
2015,08,05,02,04,15.10
2015,08,05,02,05,15.10
2015,08,05,02,06,15.00
2015,08,05,02,07,15.00
2015,08,05,02,08,15.00
2015,08,05,02,09,15.00
2015,08,05,02,10,14.90
2015,08,05,02,11,14.90
2015,08,05,02,12,14.90
2015,08,05,02,13,14.90
2015,08,05,02,14,14.90
2015,08,05,02,15,14.90
2015,08,05,02,16,14.80
2015,08,05,02,17,14.80
2015,08,05,02,18,14.80
2015,08,05,02,19,14.80
2015,08,05,02,20,14.80
2015,08,05,02,21,14.90
2015,08,05,02,22,14.90
2015,08,05,02,23,14.90
2015,08,05,02,24,14.90
2015,08,05,02,25,15.00
2015,08,05,02,26,15.00
2015,08,05,02,27,15.10
2015,08,05,02,28,15.10
2015,08,05,02,29,15.10
2015,08,05,02,30,15.10
2015,08,05,02,31,15.10
2015,08,05,02,32,15.10
2015,08,05,02,33,15.00
2015,08,05,02,34,14.90
2015,08,05,02,35,14.90
2015,08,05,02,36,14.90
2015,08,05,02,37,14.90
2015,08,05,02,38,14.90
2015,08,05,02,39,14.90
2015,08,05,02,40,15.00
2015,08,05,02,41,15.00
2015,08,05,02,42,15.10
2015,08,05,02,43,15.10
2015,08,05,02,44,15.10
2015,08,05,02,45,15.00
2015,08,05,02,46,15.00
2015,08,05,02,47,15.00
2015,08,05,02,48,15.00
2015,08,05,02,49,15.10
2015,08,05,02,50,15.10
2015,08,05,02,51,15.10
2015,08,05,02,52,15.10
2015,08,05,02,53,15.10
2015,08,05,02,54,15.20
2015,08,05,02,55,15.20
2015,08,05,02,56,15.20
2015,08,05,02,57,15.20
2015,08,05,02,58,15.20
2015,08,05,02,59,15.20
2015,08,05,03,00,15.20
2015,08,05,03,01,15.20
2015,08,05,03,02,15.20
2015,08,05,03,03,15.10
2015,08,05,03,04,15.10
2015,08,05,03,05,15.10
2015,08,05,03,06,15.00
2015,08,05,03,07,14.90
2015,08,05,03,08,14.90
2015,08,05,03,09,14.90
2015,08,05,03,10,14.90
2015,08,05,03,11,14.80
2015,08,05,03,12,14.80
2015,08,05,03,13,14.80
2015,08,05,03,14,14.80
2015,08,05,03,15,14.80
2015,08,05,03,16,14.80
2015,08,05,03,17,14.80
2015,08,05,03,18,14.80
2015,08,05,03,19,14.80
2015,08,05,03,20,14.80
2015,08,05,03,21,14.80
2015,08,05,03,22,14.80
2015,08,05,03,23,14.80
2015,08,05,03,24,14.80
2015,08,05,03,25,14.80
2015,08,05,03,26,14.80
2015,08,05,03,27,14.80
2015,08,05,03,28,14.80
2015,08,05,03,29,14.80
2015,08,05,03,30,14.80
2015,08,05,03,31,14.70
2015,08,05,03,32,14.70
2015,08,05,03,33,14.70
2015,08,05,03,34,14.70
2015,08,05,03,35,14.70
2015,08,05,03,36,14.70
2015,08,05,03,37,14.70
2015,08,05,03,38,14.70
2015,08,05,03,39,14.70
2015,08,05,03,40,14.60
2015,08,05,03,41,14.60
2015,08,05,03,42,14.60
2015,08,05,03,43,14.60
2015,08,05,03,44,14.60
2015,08,05,03,45,14.60
2015,08,05,03,46,14.60
2015,08,05,03,47,14.60
2015,08,05,03,48,14.60
2015,08,05,03,49,14.60
2015,08,05,03,50,14.60
2015,08,05,03,51,14.60
2015,08,05,03,52,14.60
2015,08,05,03,53,14.60
2015,08,05,03,54,14.60
2015,08,05,03,55,14.70
2015,08,05,03,56,14.60
2015,08,05,03,57,14.60
2015,08,05,03,58,14.60
2015,08,05,03,59,14.60
2015,08,05,04,00,14.60
2015,08,05,04,01,14.60
2015,08,05,04,02,14.60
2015,08,05,04,03,14.60
2015,08,05,04,04,14.60
2015,08,05,04,05,14.60
2015,08,05,04,06,14.60
2015,08,05,04,07,14.60
2015,08,05,04,08,14.60
2015,08,05,04,09,14.60
2015,08,05,04,10,14.60
2015,08,05,04,11,14.60
2015,08,05,04,12,14.70
2015,08,05,04,13,14.70
2015,08,05,04,14,14.70
2015,08,05,04,15,14.70
2015,08,05,04,16,14.70
2015,08,05,04,17,14.80
2015,08,05,04,18,14.80
2015,08,05,04,19,14.80
2015,08,05,04,20,14.90
2015,08,05,04,21,14.90
2015,08,05,04,22,14.90
2015,08,05,04,23,14.90
2015,08,05,04,24,14.90
2015,08,05,04,25,14.90
2015,08,05,04,26,14.90
2015,08,05,04,27,15.00
2015,08,05,04,28,15.00
2015,08,05,04,29,14.90
2015,08,05,04,30,15.00
2015,08,05,04,31,15.00
2015,08,05,04,32,15.00
2015,08,05,04,33,15.10
2015,08,05,04,34,15.10
2015,08,05,04,35,15.10
2015,08,05,04,36,15.10
2015,08,05,04,37,15.10
2015,08,05,04,38,15.20
2015,08,05,04,39,15.20
2015,08,05,04,40,15.20
2015,08,05,04,41,15.20
2015,08,05,04,42,15.20
2015,08,05,04,43,15.20
2015,08,05,04,44,15.20
2015,08,05,04,45,15.20
2015,08,05,04,46,15.20
2015,08,05,04,47,15.20
2015,08,05,04,48,15.20
2015,08,05,04,49,15.20
2015,08,05,04,50,15.20
2015,08,05,04,51,15.20
2015,08,05,04,52,15.20
2015,08,05,04,53,15.20
2015,08,05,04,54,15.20
2015,08,05,04,55,15.20
2015,08,05,04,56,15.20
2015,08,05,04,57,15.20
2015,08,05,04,58,15.20
2015,08,05,04,59,15.20
2015,08,05,05,00,15.20
2015,08,05,05,01,15.20
2015,08,05,05,02,15.20
2015,08,05,05,03,15.20
2015,08,05,05,04,15.20
2015,08,05,05,05,15.20
2015,08,05,05,06,15.20
2015,08,05,05,07,15.20
2015,08,05,05,08,15.10
2015,08,05,05,09,15.10
2015,08,05,05,10,15.10
2015,08,05,05,11,15.10
2015,08,05,05,12,15.10
2015,08,05,05,13,15.10
2015,08,05,05,14,15.10
2015,08,05,05,15,15.10
2015,08,05,05,16,15.10
2015,08,05,05,17,15.10
2015,08,05,05,18,15.10
2015,08,05,05,19,15.10
2015,08,05,05,20,15.20
2015,08,05,05,21,15.20
2015,08,05,05,22,15.20
2015,08,05,05,23,15.20
2015,08,05,05,24,15.20
2015,08,05,05,25,15.20
2015,08,05,05,26,15.20
2015,08,05,05,27,15.20
2015,08,05,05,28,15.10
2015,08,05,05,29,15.10
2015,08,05,05,30,15.10
2015,08,05,05,31,15.00
2015,08,05,05,32,14.90
2015,08,05,05,33,14.90
2015,08,05,05,34,14.90
2015,08,05,05,35,14.90
2015,08,05,05,36,14.90
2015,08,05,05,37,14.80
2015,08,05,05,38,14.80
2015,08,05,05,39,14.80
2015,08,05,05,40,14.80
2015,08,05,05,41,14.80
2015,08,05,05,42,14.80
2015,08,05,05,43,14.80
2015,08,05,05,44,14.80
2015,08,05,05,45,14.80
2015,08,05,05,46,14.80
2015,08,05,05,47,14.80
2015,08,05,05,48,14.80
2015,08,05,05,49,14.80
2015,08,05,05,50,14.80
2015,08,05,05,51,14.90
2015,08,05,05,52,14.90
2015,08,05,05,53,14.90
2015,08,05,05,54,15.00
2015,08,05,05,55,15.00
2015,08,05,05,56,15.10
2015,08,05,05,57,15.10
2015,08,05,05,58,15.10
2015,08,05,05,59,15.10
2015,08,05,06,00,15.10
2015,08,05,06,01,15.10
2015,08,05,06,02,15.10
2015,08,05,06,03,15.10
2015,08,05,06,04,15.10
2015,08,05,06,05,15.10
2015,08,05,06,06,15.00
2015,08,05,06,07,15.00
2015,08,05,06,08,15.00
2015,08,05,06,09,15.00
2015,08,05,06,10,15.00
2015,08,05,06,11,15.00
2015,08,05,06,12,15.00
2015,08,05,06,13,15.00
2015,08,05,06,14,15.00
2015,08,05,06,15,15.00
2015,08,05,06,16,15.00
2015,08,05,06,17,15.10
2015,08,05,06,18,15.10
2015,08,05,06,19,15.10
2015,08,05,06,20,15.10
2015,08,05,06,21,15.10
2015,08,05,06,22,15.10
2015,08,05,06,23,15.10
2015,08,05,06,24,15.10
2015,08,05,06,25,15.10
2015,08,05,06,26,15.10
2015,08,05,06,27,15.10
2015,08,05,06,28,15.10
2015,08,05,06,29,15.10
2015,08,05,06,30,15.10
2015,08,05,06,31,15.10
2015,08,05,06,32,15.10
2015,08,05,06,33,15.10
2015,08,05,06,34,15.10
2015,08,05,06,35,15.10
2015,08,05,06,36,15.20
2015,08,05,06,37,15.20
2015,08,05,06,38,15.20
2015,08,05,06,39,15.20
2015,08,05,06,40,15.20
2015,08,05,06,41,15.20
2015,08,05,06,42,15.20
2015,08,05,06,43,15.20
2015,08,05,06,44,15.10
2015,08,05,06,45,15.10
2015,08,05,06,46,15.10
2015,08,05,06,47,15.10
2015,08,05,06,48,15.10
2015,08,05,06,49,15.10
2015,08,05,06,50,15.10
2015,08,05,06,51,15.10
2015,08,05,06,52,15.10
2015,08,05,06,53,15.10
2015,08,05,06,54,15.10
2015,08,05,06,55,15.10
2015,08,05,06,56,15.10
2015,08,05,06,57,15.10
2015,08,05,06,58,15.00
2015,08,05,06,59,15.00
2015,08,05,07,00,15.00
2015,08,05,07,01,15.00
2015,08,05,07,02,15.10
2015,08,05,07,03,15.10
2015,08,05,07,04,15.10
2015,08,05,07,05,15.10
2015,08,05,07,06,15.10
2015,08,05,07,07,15.10
2015,08,05,07,08,15.20
2015,08,05,07,09,15.20
2015,08,05,07,10,15.20
2015,08,05,07,11,15.20
2015,08,05,07,12,15.20
2015,08,05,07,13,15.20
2015,08,05,07,14,15.20
2015,08,05,07,15,15.20
2015,08,05,07,16,15.20
2015,08,05,07,17,15.20
2015,08,05,07,18,15.20
2015,08,05,07,19,15.20
2015,08,05,07,20,15.20
2015,08,05,07,21,15.20
2015,08,05,07,22,15.30
2015,08,05,07,23,15.30
2015,08,05,07,24,15.30
2015,08,05,07,25,15.30
2015,08,05,07,26,15.30
2015,08,05,07,27,15.30
2015,08,05,07,28,15.30
2015,08,05,07,29,15.40
2015,08,05,07,30,15.40
2015,08,05,07,31,15.40
2015,08,05,07,32,15.40
2015,08,05,07,33,15.40
2015,08,05,07,34,15.40
2015,08,05,07,35,15.40
2015,08,05,07,36,15.40
2015,08,05,07,37,15.40
2015,08,05,07,38,15.40
2015,08,05,07,39,15.40
2015,08,05,07,40,15.40
2015,08,05,07,41,15.50
2015,08,05,07,42,15.50
2015,08,05,07,43,15.50
2015,08,05,07,44,15.50
2015,08,05,07,45,15.50
2015,08,05,07,46,15.50
2015,08,05,07,47,15.50
2015,08,05,07,48,15.50
2015,08,05,07,49,15.50
2015,08,05,07,50,15.50
2015,08,05,07,51,15.50
2015,08,05,07,52,15.50
2015,08,05,07,53,15.40
2015,08,05,07,54,15.50
2015,08,05,07,55,15.50
2015,08,05,07,56,15.40
2015,08,05,07,57,15.40
2015,08,05,07,58,15.40
2015,08,05,07,59,15.40
2015,08,05,08,00,15.40
2015,08,05,08,01,15.40
2015,08,05,08,02,15.40
2015,08,05,08,03,15.40
2015,08,05,08,04,15.40
2015,08,05,08,05,15.40
2015,08,05,08,06,15.50
2015,08,05,08,07,15.50
2015,08,05,08,08,15.40
2015,08,05,08,09,15.50
2015,08,05,08,10,15.50
2015,08,05,08,11,15.50
2015,08,05,08,12,15.50
2015,08,05,08,13,15.50
2015,08,05,08,14,15.50
2015,08,05,08,15,15.50
2015,08,05,08,16,15.50
2015,08,05,08,17,15.50
2015,08,05,08,18,15.50
2015,08,05,08,19,15.50
2015,08,05,08,20,15.50
2015,08,05,08,21,15.50
2015,08,05,08,22,15.50
2015,08,05,08,23,15.50
2015,08,05,08,24,15.50
2015,08,05,08,25,15.50
2015,08,05,08,26,15.50
2015,08,05,08,27,15.50
2015,08,05,08,28,15.50
2015,08,05,08,29,15.50
2015,08,05,08,30,15.50
2015,08,05,08,31,15.50
2015,08,05,08,32,15.40
2015,08,05,08,33,15.40
2015,08,05,08,34,15.50
2015,08,05,08,35,15.50
2015,08,05,08,36,15.40
2015,08,05,08,37,15.50
2015,08,05,08,38,15.50
2015,08,05,08,39,15.40
2015,08,05,08,40,15.40
2015,08,05,08,41,15.40
2015,08,05,08,42,15.40
2015,08,05,08,43,15.50
2015,08,05,08,44,15.50
2015,08,05,08,45,15.50
2015,08,05,08,46,15.50
2015,08,05,08,47,15.50
2015,08,05,08,48,15.50
2015,08,05,08,49,15.50
2015,08,05,08,50,15.50
2015,08,05,08,51,15.50
2015,08,05,08,52,15.50
2015,08,05,08,53,15.50
2015,08,05,08,54,15.50
2015,08,05,08,55,15.60
2015,08,05,08,56,15.50
2015,08,05,08,57,15.50
2015,08,05,08,58,15.60
2015,08,05,08,59,15.60
2015,08,05,09,00,15.60
2015,08,05,09,01,15.60
2015,08,05,09,02,15.60
2015,08,05,09,03,15.60
2015,08,05,09,04,15.60
2015,08,05,09,05,15.60
2015,08,05,09,06,15.60
2015,08,05,09,07,15.60
2015,08,05,09,08,15.60
2015,08,05,09,09,15.60
2015,08,05,09,10,15.60
2015,08,05,09,11,15.60
2015,08,05,09,12,15.60
2015,08,05,09,13,15.60
2015,08,05,09,14,15.60
2015,08,05,09,15,15.60
2015,08,05,09,16,15.60
2015,08,05,09,17,15.60
2015,08,05,09,18,15.60
2015,08,05,09,19,15.60
2015,08,05,09,20,15.60
2015,08,05,09,21,15.60
2015,08,05,09,22,15.60
2015,08,05,09,23,15.60
2015,08,05,09,24,15.60
2015,08,05,09,25,15.60
2015,08,05,09,26,15.60
2015,08,05,09,27,15.60
2015,08,05,09,28,15.70
2015,08,05,09,29,15.60
2015,08,05,09,30,15.70
2015,08,05,09,31,15.70
2015,08,05,09,32,15.70
2015,08,05,09,33,15.70
2015,08,05,09,34,15.70
2015,08,05,09,35,15.70
2015,08,05,09,36,15.60
2015,08,05,09,37,15.60
2015,08,05,09,38,15.60
2015,08,05,09,39,15.60
2015,08,05,09,40,15.60
2015,08,05,09,41,15.60
2015,08,05,09,42,15.60
2015,08,05,09,43,15.60
2015,08,05,09,44,15.60
2015,08,05,09,45,15.60
2015,08,05,09,46,15.70
2015,08,05,09,47,15.70
2015,08,05,09,48,15.70
2015,08,05,09,49,15.70
2015,08,05,09,50,15.70
2015,08,05,09,51,15.70
2015,08,05,09,52,15.70
2015,08,05,09,53,15.70
2015,08,05,09,54,15.70
2015,08,05,09,55,15.70
2015,08,05,09,56,15.70
2015,08,05,09,57,15.70
2015,08,05,09,58,15.70
2015,08,05,09,59,15.70
2015,08,05,10,00,15.70
2015,08,05,10,01,15.70
2015,08,05,10,02,15.70
2015,08,05,10,03,15.70
2015,08,05,10,04,15.70
2015,08,05,10,05,15.70
2015,08,05,10,06,15.70
2015,08,05,10,07,15.80
2015,08,05,10,08,15.80
2015,08,05,10,09,15.80
2015,08,05,10,10,15.80
2015,08,05,10,11,15.80
2015,08,05,10,12,15.80
2015,08,05,10,13,15.80
2015,08,05,10,14,15.80
2015,08,05,10,15,15.80
2015,08,05,10,16,15.80
2015,08,05,10,17,15.80
2015,08,05,10,18,15.80
2015,08,05,10,19,15.70
2015,08,05,10,20,15.70
2015,08,05,10,21,15.80
2015,08,05,10,22,15.80
2015,08,05,10,23,15.70
2015,08,05,10,24,15.70
2015,08,05,10,25,15.70
2015,08,05,10,26,15.70
2015,08,05,10,27,15.70
2015,08,05,10,28,15.70
2015,08,05,10,29,15.70
2015,08,05,10,30,15.70
2015,08,05,10,31,15.70
2015,08,05,10,32,15.70
2015,08,05,10,33,15.70
2015,08,05,10,34,15.70
2015,08,05,10,35,15.80
2015,08,05,10,36,15.80
2015,08,05,10,37,15.80
2015,08,05,10,38,15.80
2015,08,05,10,39,15.80
2015,08,05,10,40,15.80
2015,08,05,10,41,15.80
2015,08,05,10,42,15.80
2015,08,05,10,43,15.80
2015,08,05,10,44,15.80
2015,08,05,10,45,15.80
2015,08,05,10,46,15.80
2015,08,05,10,47,15.80
2015,08,05,10,48,15.80
2015,08,05,10,49,15.80
2015,08,05,10,50,15.80
2015,08,05,10,51,15.80
2015,08,05,10,52,15.80
2015,08,05,10,53,15.80
2015,08,05,10,54,15.90
2015,08,05,10,55,15.90
2015,08,05,10,56,15.90
2015,08,05,10,57,15.90
2015,08,05,10,58,15.90
2015,08,05,10,59,15.90
2015,08,05,11,00,15.90
2015,08,05,11,01,15.90
2015,08,05,11,02,16.00
2015,08,05,11,03,16.00
2015,08,05,11,04,16.00
2015,08,05,11,05,16.10
2015,08,05,11,06,16.10
2015,08,05,11,07,16.10
2015,08,05,11,08,16.10
2015,08,05,11,09,16.20
2015,08,05,11,10,16.20
2015,08,05,11,11,16.30
2015,08,05,11,12,16.30
2015,08,05,11,13,16.30
2015,08,05,11,14,16.30
2015,08,05,11,15,16.30
2015,08,05,11,16,16.40
2015,08,05,11,17,16.40
2015,08,05,11,18,16.40
2015,08,05,11,19,16.50
2015,08,05,11,20,16.60
2015,08,05,11,21,16.60
2015,08,05,11,22,16.60
2015,08,05,11,23,16.70
2015,08,05,11,24,16.70
2015,08,05,11,25,16.70
2015,08,05,11,26,16.80
2015,08,05,11,27,16.80
2015,08,05,11,28,16.80
2015,08,05,11,29,16.80
2015,08,05,11,30,16.90
2015,08,05,11,31,16.90
2015,08,05,11,32,16.90
2015,08,05,11,33,16.90
2015,08,05,11,34,17.00
2015,08,05,11,35,17.00
2015,08,05,11,36,17.10
2015,08,05,11,37,17.10
2015,08,05,11,38,17.10
2015,08,05,11,39,17.20
2015,08,05,11,40,17.20
2015,08,05,11,41,17.20
2015,08,05,11,42,17.30
2015,08,05,11,43,17.30
2015,08,05,11,44,17.30
2015,08,05,11,45,17.30
2015,08,05,11,46,17.30
2015,08,05,11,47,17.30
2015,08,05,11,48,17.30
2015,08,05,11,49,17.30
2015,08,05,11,50,17.30
2015,08,05,11,51,17.30
2015,08,05,11,52,17.30
2015,08,05,11,53,17.30
2015,08,05,11,54,17.40
2015,08,05,11,55,17.40
2015,08,05,11,56,17.40
2015,08,05,11,57,17.50
2015,08,05,11,58,17.50
2015,08,05,11,59,17.60
2015,08,05,12,00,17.60
2015,08,05,12,01,17.70
2015,08,05,12,02,17.70
2015,08,05,12,03,17.70
2015,08,05,12,04,17.70
2015,08,05,12,05,17.70
2015,08,05,12,06,17.70
2015,08,05,12,07,17.70
2015,08,05,12,08,17.70
2015,08,05,12,09,17.70
2015,08,05,12,10,17.70
2015,08,05,12,11,17.70
2015,08,05,12,12,17.80
2015,08,05,12,13,17.80
2015,08,05,12,14,17.80
2015,08,05,12,15,17.80
2015,08,05,12,16,17.80
2015,08,05,12,17,17.80
2015,08,05,12,18,17.80
2015,08,05,12,19,17.80
2015,08,05,12,20,17.70
2015,08,05,12,21,17.70
2015,08,05,12,22,17.70
2015,08,05,12,23,17.80
2015,08,05,12,24,17.80
2015,08,05,12,25,17.80
2015,08,05,12,26,17.80
2015,08,05,12,27,17.80
2015,08,05,12,28,17.80
2015,08,05,12,29,17.80
2015,08,05,12,30,17.80
2015,08,05,12,31,17.80
2015,08,05,12,32,17.90
2015,08,05,12,33,17.90
2015,08,05,12,34,17.90
2015,08,05,12,35,18.00
2015,08,05,12,36,18.00
2015,08,05,12,37,18.10
2015,08,05,12,38,18.20
2015,08,05,12,39,18.20
2015,08,05,12,40,18.30
2015,08,05,12,41,18.40
2015,08,05,12,42,18.40
2015,08,05,12,43,18.40
2015,08,05,12,44,18.40
2015,08,05,12,45,18.40
2015,08,05,12,46,18.40
2015,08,05,12,47,18.50
2015,08,05,12,48,18.60
2015,08,05,12,49,18.60
2015,08,05,12,50,18.60
2015,08,05,12,51,18.50
2015,08,05,12,52,18.40
2015,08,05,12,53,18.40
2015,08,05,12,54,18.40
2015,08,05,12,55,18.40
2015,08,05,12,56,18.40
2015,08,05,12,57,18.40
2015,08,05,12,58,18.40
2015,08,05,12,59,18.40
2015,08,05,13,00,18.50
2015,08,05,13,01,18.60
2015,08,05,13,02,18.60
2015,08,05,13,03,18.60
2015,08,05,13,04,18.50
2015,08,05,13,05,18.60
2015,08,05,13,06,18.60
2015,08,05,13,07,18.60
2015,08,05,13,08,18.70
2015,08,05,13,09,18.70
2015,08,05,13,10,18.70
2015,08,05,13,11,18.80
2015,08,05,13,12,18.80
2015,08,05,13,13,18.80
2015,08,05,13,14,18.80
2015,08,05,13,15,18.80
2015,08,05,13,16,18.80
2015,08,05,13,17,18.80
2015,08,05,13,18,18.70
2015,08,05,13,19,18.70
2015,08,05,13,20,18.70
2015,08,05,13,21,18.70
2015,08,05,13,22,18.80
2015,08,05,13,23,18.80
2015,08,05,13,24,18.90
2015,08,05,13,25,18.90
2015,08,05,13,26,19.00
2015,08,05,13,27,19.00
2015,08,05,13,28,19.00
2015,08,05,13,29,19.10
2015,08,05,13,30,19.20
2015,08,05,13,31,19.20
2015,08,05,13,32,19.20
2015,08,05,13,33,19.30
2015,08,05,13,34,19.30
2015,08,05,13,36,19.30
2015,08,05,13,37,19.30
2015,08,05,13,38,19.30
2015,08,05,13,39,19.20
2015,08,05,13,40,19.10
2015,08,05,13,41,18.90
2015,08,05,13,42,18.90
2015,08,05,13,43,18.80
2015,08,05,13,44,18.80
2015,08,05,13,45,18.70
2015,08,05,13,46,18.70
2015,08,05,13,47,18.60
2015,08,05,13,48,18.60
2015,08,05,13,49,18.60
2015,08,05,13,50,18.60
2015,08,05,13,51,18.60
2015,08,05,13,52,18.60
2015,08,05,13,53,18.50
2015,08,05,13,55,18.40
2015,08,05,13,56,18.30
2015,08,05,13,57,18.20
2015,08,05,13,58,18.20
2015,08,05,13,59,18.20
2015,08,05,14,00,18.20
2015,08,05,14,01,18.20
2015,08,05,14,02,18.20
2015,08,05,14,03,18.20
2015,08,05,14,04,18.20
2015,08,05,14,05,18.10
2015,08,05,14,06,18.10
2015,08,05,14,07,18.20
2015,08,05,14,08,18.20
2015,08,05,14,09,18.20
2015,08,05,14,10,18.30
2015,08,05,14,11,18.30
2015,08,05,14,12,18.30
2015,08,05,14,13,18.30
2015,08,05,14,14,18.30
2015,08,05,14,15,18.20
2015,08,05,14,16,18.20
2015,08,05,14,17,18.20
2015,08,05,14,18,18.10
2015,08,05,14,19,18.10
2015,08,05,14,20,18.10
2015,08,05,14,21,18.10
2015,08,05,14,22,18.00
2015,08,05,14,23,18.00
2015,08,05,14,24,18.00
2015,08,05,14,25,18.00
2015,08,05,14,26,18.00
2015,08,05,14,27,18.00
2015,08,05,14,28,18.00
2015,08,05,14,29,18.00
2015,08,05,14,30,18.00
2015,08,05,14,31,18.00
2015,08,05,14,32,18.00
2015,08,05,14,33,18.00
2015,08,05,14,34,18.00
2015,08,05,14,35,18.00
2015,08,05,14,36,18.00
2015,08,05,14,37,18.00
2015,08,05,14,38,18.00
2015,08,05,14,39,17.90
2015,08,05,14,40,17.90
2015,08,05,14,41,18.00
2015,08,05,14,42,18.10
2015,08,05,14,43,18.10
2015,08,05,14,44,18.10
2015,08,05,14,45,18.20
2015,08,05,14,46,18.20
2015,08,05,14,47,18.20
2015,08,05,14,48,18.20
2015,08,05,14,49,18.20
2015,08,05,14,50,18.10
2015,08,05,14,51,18.10
2015,08,05,14,52,18.10
2015,08,05,14,53,18.10
2015,08,05,14,54,18.10
2015,08,05,14,55,18.10
2015,08,05,14,56,18.10
2015,08,05,14,57,18.10
2015,08,05,14,58,18.20
2015,08,05,14,59,18.20
2015,08,05,15,00,18.20
2015,08,05,15,01,18.30
2015,08,05,15,02,18.30
2015,08,05,15,03,18.30
2015,08,05,15,04,18.30
2015,08,05,15,05,18.30
2015,08,05,15,06,18.30
2015,08,05,15,07,18.30
2015,08,05,15,08,18.30
2015,08,05,15,09,18.40
2015,08,05,15,10,18.40
2015,08,05,15,11,18.40
2015,08,05,15,12,18.50
2015,08,05,15,13,18.50
2015,08,05,15,14,18.60
2015,08,05,15,15,18.60
2015,08,05,15,16,18.70
2015,08,05,15,17,18.80
2015,08,05,15,18,18.90
2015,08,05,15,19,18.90
2015,08,05,15,20,18.90
2015,08,05,15,21,18.90
2015,08,05,15,22,18.80
2015,08,05,15,23,18.80
2015,08,05,15,24,18.80
2015,08,05,15,25,18.80
2015,08,05,15,26,18.70
2015,08,05,15,27,18.70
2015,08,05,15,28,18.70
2015,08,05,15,29,18.60
2015,08,05,15,30,18.60
2015,08,05,15,31,18.60
2015,08,05,15,32,18.60
2015,08,05,15,33,18.60
2015,08,05,15,34,18.60
2015,08,05,15,35,18.60
2015,08,05,15,36,18.60
2015,08,05,15,37,18.50
2015,08,05,15,38,18.50
2015,08,05,15,39,18.40
2015,08,05,15,40,18.40
2015,08,05,15,41,18.40
2015,08,05,15,42,18.40
2015,08,05,15,43,18.40
2015,08,05,15,44,18.40
2015,08,05,15,45,18.40
2015,08,05,15,46,18.40
2015,08,05,15,47,18.40
2015,08,05,15,48,18.40
2015,08,05,15,49,18.40
2015,08,05,15,50,18.40
2015,08,05,15,51,18.30
2015,08,05,15,52,18.30
2015,08,05,15,53,18.40
2015,08,05,15,54,18.40
2015,08,05,15,55,18.40
2015,08,05,15,56,18.40
2015,08,05,15,57,18.40
2015,08,05,15,58,18.40
2015,08,05,15,59,18.40
2015,08,05,16,00,18.40
2015,08,05,16,01,18.40
2015,08,05,16,02,18.40
2015,08,05,16,03,18.40
2015,08,05,16,04,18.40
2015,08,05,16,05,18.30
2015,08,05,16,06,18.30
2015,08,05,16,07,18.30
2015,08,05,16,08,18.30
2015,08,05,16,09,18.30
2015,08,05,16,10,18.30
2015,08,05,16,11,18.30
2015,08,05,16,12,18.30
2015,08,05,16,13,18.30
2015,08,05,16,14,18.30
2015,08,05,16,15,18.30
2015,08,05,16,16,18.30
2015,08,05,16,17,18.30
2015,08,05,16,18,18.30
2015,08,05,16,19,18.40
2015,08,05,16,20,18.40
2015,08,05,16,21,18.50
2015,08,05,16,22,18.60
2015,08,05,16,23,18.60
2015,08,05,16,24,18.60
2015,08,05,16,25,18.50
2015,08,05,16,26,18.40
2015,08,05,16,27,18.40
2015,08,05,16,28,18.30
2015,08,05,16,29,18.30
2015,08,05,16,30,18.20
2015,08,05,16,31,18.20
2015,08,05,16,32,18.20
2015,08,05,16,33,18.20
2015,08,05,16,34,18.20
2015,08,05,16,35,18.20
2015,08,05,16,36,18.20
2015,08,05,16,37,18.20
2015,08,05,16,38,18.20
2015,08,05,16,39,18.20
2015,08,05,16,40,18.20
2015,08,05,16,41,18.20
2015,08,05,16,42,18.20
2015,08,05,16,43,18.20
2015,08,05,16,44,18.20
2015,08,05,16,45,18.20
2015,08,05,16,46,18.20
2015,08,05,16,47,18.20
2015,08,05,16,48,18.20
2015,08,05,16,49,18.20
2015,08,05,16,50,18.20
2015,08,05,16,51,18.20
2015,08,05,16,52,18.20
2015,08,05,16,53,18.20
2015,08,05,16,54,18.20
2015,08,05,16,55,18.20
2015,08,05,16,56,18.20
2015,08,05,16,57,18.20
2015,08,05,16,58,18.20
2015,08,05,16,59,18.20
2015,08,05,17,00,18.10
2015,08,05,17,01,18.10
2015,08,05,17,02,18.10
2015,08,05,17,03,18.10
2015,08,05,17,04,18.10
2015,08,05,17,05,18.10
2015,08,05,17,06,18.10
2015,08,05,17,07,18.10
2015,08,05,17,08,18.10
2015,08,05,17,09,18.10
2015,08,05,17,10,18.10
2015,08,05,17,11,18.10
2015,08,05,17,12,18.10
2015,08,05,17,13,18.10
2015,08,05,17,14,18.10
2015,08,05,17,15,18.10
2015,08,05,17,16,18.10
2015,08,05,17,17,18.10
2015,08,05,17,18,18.10
2015,08,05,17,19,18.10
2015,08,05,17,20,18.10
2015,08,05,17,21,18.10